Date String (YYYY-MM-DD hh:mm:ss) UTC,Instrument flags,absolute air pressure of the measurement (hPa),sample flow rate (lpm),inlet stack bypass flow (lpm),air temperature of the measurement (°C),ambient temperature measured by the external sensor (°C),aerosol sample conditioner tube jacket temperature (°C),OPC LED temperature (°C),internal box temperature (°C),relative humidity of the measurement (%),span deviation,mass concentration of particles derived from Lorenz-Mie calculation of OPC scattering (μg/m³),mass concentration of particles derived from Lorenz-Mie calculation of OPC scattering (μg/m³),mass concentration of particles derived from Lorenz-Mie calculation of OPC scattering (μg/m³)
DateTimeUTC,F1_M11,P_M11,Q1_M11,Q2_M11,T1_M11,T2_M11,T3_M11,T4_M11,T5_M11,U1_M11,ZSPAN_M11,X0_M11,X2_M11,X1_M11
2023-11-18 03:00:00,SystemResetWarning,0832.2,5.00,000.00,025.5,024.4,000.0,033.8,026.9,18.2,0004.8,0014.50,0006.12,0005.17
2023-11-18 03:01:00,SystemResetWarning,0832.3,5.00,000.00,025.5,024.4,000.0,033.8,026.9,18.1,0004.9,0014.80,0006.15,0005.18
2023-11-18 03:02:00,SystemResetWarning,0832.3,5.00,000.00,025.5,024.4,000.0,033.8,026.9,18.1,0005.0,0014.63,0006.13,0005.17
2023-11-18 03:03:00,SystemResetWarning,0832.3,5.00,000.00,025.5,024.4,000.0,033.8,026.9,18.1,0004.9,0015.02,0006.12,0005.16
2023-11-18 03:04:00,SystemResetWarning,0832.2,4.99,000.00,025.5,024.5,000.0,033.8,026.9,17.9,0005.0,0014.99,0006.12,0005.12
2023-11-18 03:05:00,SystemResetWarning,0832.2,4.99,000.00,025.5,024.5,000.0,033.8,026.9,17.9,0005.0,0014.86,0006.12,0005.09
2023-11-18 03:06:00,SystemResetWarning,0832.2,4.99,000.00,025.5,024.5,000.0,033.8,026.9,17.9,0004.7,0014.72,0006.08,0005.06
2023-11-18 03:07:00,SystemResetWarning,0832.2,5.00,000.00,025.5,024.5,000.0,033.8,026.9,17.9,0004.3,0014.65,0006.02,0005.02
2023-11-18 03:08:00,SystemResetWarning,0832.2,5.01,000.00,025.5,024.5,000.0,033.8,027.0,17.9,0004.0,0014.96,0005.94,0004.96
2023-11-18 03:09:00,SystemResetWarning,0832.2,5.00,000.00,025.5,024.5,000.0,033.8,027.0,17.8,0004.5,0014.53,0005.84,0004.90
2023-11-18 03:10:00,SystemResetWarning,0832.2,5.01,000.00,025.5,024.5,000.0,033.8,026.9,17.8,0004.1,0014.45,0005.79,0004.85
2023-11-18 03:11:00,SystemResetWarning,0832.2,5.01,000.00,025.5,024.4,000.0,033.9,026.9,17.7,0003.7,0015.18,0005.73,0004.79
2023-11-18 03:12:00,SystemResetWarning,0832.2,5.01,000.00,025.5,024.4,000.0,033.9,026.9,17.7,0003.0,0017.01,0005.71,0004.73
2023-11-18 03:13:00,SystemResetWarning,0832.2,5.00,000.00,025.5,024.5,000.0,033.9,026.9,17.7,0002.9,0016.65,0005.66,0004.68
2023-11-18 03:14:00,SystemResetWarning,0832.2,5.00,000.00,025.5,024.5,000.0,033.9,026.9,17.5,0002.9,0016.01,0005.60,0004.64
2023-11-18 03:15:00,SystemResetWarning,0832.2,4.99,000.00,025.5,024.5,000.0,033.9,026.9,17.5,0002.6,0016.73,0005.54,0004.61
2023-11-18 03:16:00,SystemResetWarning,0832.2,4.99,000.00,025.5,024.5,000.0,033.9,026.9,17.5,0003.5,0017.08,0005.53,0004.60
2023-11-18 03:17:00,SystemResetWarning,0832.2,5.00,000.00,025.5,024.5,000.0,033.9,026.9,17.5,0003.7,0017.43,0005.48,0004.58
2023-11-18 03:18:00,SystemResetWarning,0832.2,5.01,000.00,025.5,024.4,000.0,033.9,027.0,17.4,0000.7,0016.96,0005.45,0004.55
2023-11-18 03:19:00,SystemResetWarning,0832.2,5.01,000.00,025.5,024.4,000.0,033.9,026.9,17.3,0003.1,0016.43,0005.43,0004.55
2023-11-18 03:20:00,SystemResetWarning,0832.2,5.01,000.00,025.5,024.4,000.0,033.9,026.9,17.3,0003.2,0016.59,0005.40,0004.53
2023-11-18 03:21:00,SystemResetWarning,0832.2,5.00,000.00,025.5,024.4,000.0,033.9,026.9,17.3,0003.7,0016.49,0005.36,0004.52
2023-11-18 03:22:00,SystemResetWarning,0832.2,5.00,000.00,025.5,024.4,000.0,033.9,026.9,17.2,0003.5,0015.46,0005.32,0004.51
2023-11-18 03:23:00,SystemResetWarning,0832.2,4.99,000.00,025.5,024.4,000.0,033.9,026.9,17.2,0000.0,0014.51,0005.23,0004.50
2023-11-18 03:24:00,SystemResetWarning,0832.2,5.00,000.00,025.6,024.4,000.0,033.9,026.9,17.3,0000.0,0014.99,0005.22,0004.48
2023-11-18 03:25:00,SystemResetWarning,0832.2,5.00,000.00,025.5,024.4,000.0,033.9,026.9,16.9,0000.0,0015.37,0005.22,0004.44
2023-11-18 03:26:00,SystemResetWarning,0832.1,5.00,000.00,025.5,024.4,000.0,033.9,026.9,16.8,0000.0,0014.44,0005.20,0004.41
2023-11-18 03:27:00,SystemResetWarning,0832.1,4.99,000.00,025.5,024.4,000.0,033.9,026.9,16.9,0000.7,0014.08,0005.16,0004.37
2023-11-18 03:28:00,SystemResetWarning,0832.1,5.00,000.00,025.5,024.4,000.0,033.9,026.9,17.1,0000.0,0014.18,0005.13,0004.35
2023-11-18 03:29:00,SystemResetWarning,0832.1,5.01,000.00,025.5,024.4,000.0,033.9,026.9,17.0,0000.0,0014.19,0005.08,0004.33
2023-11-18 03:30:00,SystemResetWarning,0832.1,5.01,000.00,025.5,024.4,000.0,033.9,026.9,17.0,0000.0,0014.27,0005.05,0004.28
2023-11-18 03:31:00,SystemResetWarning,0832.0,5.00,000.00,025.5,024.4,000.0,033.9,026.9,17.1,0000.0,0013.85,0005.02,0004.25
2023-11-18 03:32:00,SystemResetWarning,0832.1,4.99,000.00,025.5,024.5,000.0,033.9,026.9,17.3,0000.0,0013.55,0005.02,0004.23
2023-11-18 03:33:00,SystemResetWarning,0832.1,4.99,000.00,025.5,024.5,000.0,033.9,026.9,17.3,0000.0,0013.09,0005.00,0004.21
2023-11-18 03:34:00,SystemResetWarning,0832.1,4.99,000.00,025.5,024.5,000.0,033.9,026.9,17.4,0000.0,0012.57,0004.99,0004.19
2023-11-18 03:35:00,SystemResetWarning,0832.0,5.00,000.00,025.6,024.5,000.0,033.9,026.9,17.4,0000.0,0012.59,0004.96,0004.18
2023-11-18 03:36:00,SystemResetWarning,0832.0,5.01,000.00,025.5,024.5,000.0,033.9,026.9,17.3,0000.0,0012.42,0004.92,0004.17
2023-11-18 03:37:00,SystemResetWarning,0832.1,5.00,000.00,025.5,024.4,000.0,033.9,026.9,17.2,0000.0,0011.94,0004.84,0004.16
2023-11-18 03:38:00,SystemResetWarning,0832.1,5.00,000.00,025.5,024.4,000.0,033.9,026.9,17.1,0000.0,0011.35,0004.79,0004.15
2023-11-18 03:39:00,SystemResetWarning,0832.1,5.00,000.00,025.5,024.4,000.0,033.9,026.9,17.1,0000.0,0010.76,0004.84,0004.14
2023-11-18 03:40:00,SystemResetWarning,0832.0,5.00,000.00,025.5,024.4,000.0,033.9,026.9,17.0,0000.0,0010.96,0004.87,0004.12
2023-11-18 03:41:00,SystemResetWarning,0832.1,5.00,000.00,025.5,024.4,000.0,033.9,026.9,16.9,0000.0,0011.53,0004.88,0004.11
2023-11-18 03:42:00,SystemResetWarning,0832.0,5.00,000.00,025.5,024.4,000.0,033.9,026.9,17.0,0000.0,0011.54,0004.87,0004.12
2023-11-18 03:43:00,SystemResetWarning,0832.0,5.00,000.00,025.5,024.4,000.0,033.9,026.9,16.9,0000.0,0011.58,0004.83,0004.12
2023-11-18 03:44:00,SystemResetWarning,0832.0,5.00,000.00,025.5,024.4,000.0,033.9,026.9,17.0,0000.0,0011.58,0004.79,0004.10
2023-11-18 03:45:00,SystemResetWarning,0832.0,5.00,000.00,025.5,024.4,000.0,033.9,026.9,17.2,0000.0,0010.89,0004.73,0004.08
2023-11-18 03:46:00,SystemResetWarning,0832.0,5.00,000.00,025.5,024.4,000.0,033.9,026.9,17.4,0000.0,0010.74,0004.70,0004.04
2023-11-18 03:47:00,SystemResetWarning,0832.0,5.00,000.00,025.5,024.5,000.0,033.9,026.9,17.2,0000.0,0011.37,0004.67,0004.02
2023-11-18 03:48:00,SystemResetWarning,0831.9,4.99,000.00,025.5,024.5,000.0,033.9,026.9,17.3,0000.0,0011.41,0004.67,0004.00
2023-11-18 03:49:00,SystemResetWarning,0831.9,5.00,000.00,025.6,024.5,000.0,033.9,026.9,17.3,0000.0,0011.69,0004.65,0003.97
2023-11-18 03:50:00,SystemResetWarning,0831.9,4.99,000.00,025.6,024.5,000.0,033.9,026.9,17.4,0000.0,0011.72,0004.58,0003.94
2023-11-18 03:51:00,SystemResetWarning,0831.9,4.99,000.00,025.6,024.5,000.0,033.9,026.9,17.3,0000.0,0011.55,0004.58,0003.94
2023-11-18 03:52:00,SystemResetWarning,0831.9,4.99,000.00,025.6,024.5,000.0,033.9,026.9,16.9,0000.0,0010.79,0004.57,0003.94
2023-11-18 03:53:00,SystemResetWarning,0831.8,5.00,000.00,025.6,024.4,000.0,033.9,026.9,16.6,0000.0,0010.93,0004.59,0003.92
2023-11-18 03:54:00,SystemResetWarning,0831.8,5.01,000.00,025.6,024.4,000.0,033.9,026.9,16.6,0000.0,0011.87,0004.59,0003.90
2023-11-18 03:55:00,SystemResetWarning,0831.8,5.01,000.00,025.5,024.4,000.0,033.9,026.9,16.7,0000.0,0012.58,0004.62,0003.91
2023-11-18 03:56:00,SystemResetWarning,0831.9,5.00,000.00,025.5,024.4,000.0,033.9,026.9,16.7,0000.0,0013.11,0004.69,0003.94
2023-11-18 03:57:00,SystemResetWarning,0831.9,5.00,000.00,025.5,024.4,000.0,033.9,026.9,16.6,0000.0,0013.61,0004.71,0003.94
2023-11-18 03:58:00,SystemResetWarning,0831.9,5.00,000.00,025.5,024.4,000.0,033.9,026.9,16.5,0000.0,0012.57,0004.67,0003.93
2023-11-18 03:59:00,SystemResetWarning,0831.9,4.99,000.00,025.5,024.4,000.0,033.9,026.9,16.5,0000.0,0012.36,0004.65,0003.90
